contact:dominique.lefevre@mio.osupytheas.fr, maurice.libes@osupytheas.fr, didier.mallarino@osupytheas.fr
Project:EMSO http://www.emso-fr.org/EMSO-France
Depth: 2436.0 m
Title:EMSO Ligure Ouest : Data MII capteur AQUADOPP
Date,Latitude,Longitude,X_East,Y_North,Z_Up,Amplitude_X,Amplitude_Y,Amplitude_Z,Batterie,SoundSpeed,Heading,Pitch,Roll,Pressure,TIS,Speed,Direction
, degrees North, degrees East, m.s-1, m.s-1,m.s-1, 1, 1, 1, Volt, m.s-1, degree, degree, degree, dbar, degree_C, m.s-1, degree
2022-09-22T00:04:03,42.805,6.029,-0.03,0.006,0.01,101.0,101.0,100.0,13.4,1505.2,332.5,-0.8,1.8,2471.016,13.29,0.03,281.3
2022-09-22T00:07:03,42.805,6.029,-0.023,0.006,0.035,100.0,101.0,100.0,13.4,1505.2,331.6,-0.8,1.8,2471.003,13.29,0.023,284.6
2022-09-22T00:10:03,42.805,6.029,-0.013,0.016,0.034,100.0,101.0,100.0,13.4,1505.2,331.9,-0.8,1.8,2470.976,13.29,0.02,320.9
2022-09-22T00:13:03,42.805,6.029,-0.045,0.001,0.044,102.0,100.0,100.0,13.4,1505.2,328.2,-0.7,1.8,2471.001,13.29,0.045,271.3
2022-09-22T00:16:03,42.805,6.029,-0.011,-0.031,-0.003,99.0,102.0,99.0,13.3,1505.2,317.3,-0.8,1.8,2470.981,13.29,0.032,199.5
2022-09-22T00:19:03,42.805,6.029,-0.027,0.002,0.028,102.0,100.0,100.0,13.3,1505.2,329.9,-0.8,1.8,2470.999,13.29,0.027,274.2
2022-09-22T00:22:03,42.805,6.029,-0.024,-0.023,-0.005,100.0,103.0,100.0,13.4,1505.2,321.3,-0.7,1.8,2470.971,13.29,0.033,226.2
2022-09-22T00:25:03,42.805,6.029,-0.006,-0.007,0.029,100.0,101.0,100.0,13.4,1505.2,334.3,-0.7,1.8,2470.968,13.29,0.009,220.6
2022-09-22T00:28:03,42.805,6.029,-0.034,-0.02,0.01,102.0,101.0,99.0,13.4,1505.2,319.7,-0.8,1.8,2470.962,13.29,0.039,239.5
2022-09-22T00:31:03,42.805,6.029,-0.023,-0.01,0.008,100.0,101.0,99.0,13.3,1505.2,327.7,-0.8,1.8,2470.951,13.29,0.025,246.5
2022-09-22T00:34:03,42.805,6.029,-0.03,0.003,0.018,100.0,101.0,100.0,13.4,1505.2,329.3,-0.8,1.8,2470.969,13.29,0.03,275.7
2022-09-22T00:37:03,42.805,6.029,0.003,-0.035,0.023,102.0,100.0,100.0,13.4,1505.2,329.5,-0.8,1.8,2470.95,13.29,0.035,175.1
2022-09-22T00:40:03,42.805,6.029,-0.01,-0.016,0.017,100.0,102.0,99.0,13.4,1505.2,319.4,-0.7,1.8,2470.96,13.29,0.018,212.0
2022-09-22T00:43:03,42.805,6.029,-0.021,-0.007,0.017,101.0,101.0,99.0,13.4,1505.2,319.8,-0.8,1.8,2470.964,13.29,0.022,251.6
2022-09-22T00:46:03,42.805,6.029,-0.019,-0.007,0.02,99.0,102.0,99.0,13.4,1505.2,320.9,-0.8,1.8,2470.989,13.29,0.02,249.8
2022-09-22T00:49:03,42.805,6.029,-0.013,-0.01,0.024,102.0,101.0,99.0,13.4,1505.2,323.1,-0.8,1.8,2470.977,13.29,0.016,232.4
2022-09-22T00:52:03,42.805,6.029,-0.033,-0.006,0.027,101.0,101.0,100.0,13.4,1505.2,320.5,-0.8,1.8,2470.942,13.29,0.033,259.7
2022-09-22T00:55:03,42.805,6.029,-0.001,-0.022,0.024,100.0,101.0,100.0,13.4,1505.2,329.2,-0.8,1.8,2470.942,13.29,0.022,182.6
2022-09-22T00:58:03,42.805,6.029,-0.016,-0.023,0.004,100.0,101.0,100.0,13.4,1505.2,321.7,-0.8,1.8,2470.986,13.29,0.028,214.8
2022-09-22T01:04:03,42.805,6.029,-0.028,0.015,0.015,101.0,102.0,101.0,13.4,1505.2,318.4,-0.8,1.8,2470.997,13.29,0.031,298.2
2022-09-22T01:07:03,42.805,6.029,-0.009,-0.002,0.006,101.0,101.0,101.0,13.4,1505.2,322.1,-0.7,1.8,2471.03,13.29,0.009,257.5
2022-09-22T01:10:03,42.805,6.029,-0.004,-0.014,0.031,102.0,99.0,101.0,13.4,1505.2,329.9,-0.7,1.8,2470.977,13.29,0.014,195.9
2022-09-22T01:13:03,42.805,6.029,-0.022,0.0,0.024,100.0,101.0,100.0,13.4,1505.2,329.8,-0.7,1.8,2471.004,13.29,0.022,270.0
2022-09-22T01:16:03,42.805,6.029,-0.008,-0.018,0.028,102.0,100.0,99.0,13.4,1505.2,322.1,-0.8,1.8,2470.985,13.29,0.019,204.0
2022-09-22T01:19:03,42.805,6.029,-0.023,-0.017,0.008,103.0,99.0,101.0,13.4,1505.2,328.5,-0.7,1.8,2470.925,13.29,0.028,233.5
2022-09-22T01:22:03,42.805,6.029,-0.003,-0.01,0.044,100.0,100.0,101.0,13.4,1505.2,318.9,-0.8,1.8,2471.019,13.29,0.01,196.7
2022-09-22T01:25:03,42.805,6.029,-0.017,-0.02,0.037,101.0,100.0,100.0,13.4,1505.2,323.0,-0.7,1.8,2470.976,13.29,0.026,220.4
2022-09-22T01:28:03,42.805,6.029,-0.032,-0.01,0.023,101.0,100.0,100.0,13.4,1505.2,320.9,-0.8,1.8,2470.951,13.29,0.033,252.6
2022-09-22T01:31:03,42.805,6.029,-0.024,-0.005,0.03,101.0,100.0,99.0,13.3,1505.2,328.4,-0.7,1.8,2470.975,13.29,0.024,258.2
2022-09-22T01:34:03,42.805,6.029,-0.021,-0.001,0.032,101.0,102.0,100.0,13.3,1505.2,320.5,-0.8,1.8,2470.97,13.29,0.021,267.3
2022-09-22T01:37:03,42.805,6.029,-0.018,0.0,0.042,101.0,101.0,100.0,13.4,1505.2,318.6,-0.8,1.8,2470.956,13.29,0.018,270.0
2022-09-22T01:40:03,42.805,6.029,-0.001,-0.019,-0.001,101.0,101.0,100.0,13.4,1505.2,326.1,-0.8,1.8,2470.962,13.29,0.019,183.0
2022-09-22T01:43:03,42.805,6.029,-0.016,-0.017,0.009,100.0,100.0,100.0,13.3,1505.2,326.8,-0.7,1.8,2470.978,13.29,0.023,223.3
2022-09-22T01:46:03,42.805,6.029,-0.003,-0.032,0.017,102.0,100.0,101.0,13.4,1505.2,327.4,-0.7,1.8,2470.973,13.29,0.032,185.4
2022-09-22T01:49:03,42.805,6.029,-0.014,-0.011,0.048,102.0,100.0,102.0,13.3,1505.2,319.5,-0.8,1.8,2470.962,13.29,0.017,231.8
2022-09-22T01:52:03,42.805,6.029,-0.034,-0.022,0.007,102.0,100.0,99.0,13.4,1505.2,322.5,-0.7,1.8,2470.996,13.29,0.04,237.1
2022-09-22T01:55:03,42.805,6.029,-0.018,-0.016,0.008,101.0,101.0,99.0,13.4,1505.2,323.7,-0.8,1.8,2470.986,13.29,0.024,228.4
2022-09-22T01:58:03,42.805,6.029,-0.013,-0.014,0.042,100.0,103.0,98.0,13.3,1505.2,325.2,-0.8,1.9,2471.001,13.29,0.019,222.9
2022-09-22T02:04:03,42.805,6.029,0.023,-0.024,0.005,100.0,101.0,100.0,13.3,1505.2,318.7,-0.8,1.8,2470.996,13.29,0.033,136.2
2022-09-22T02:07:03,42.805,6.029,-0.014,-0.027,-0.001,100.0,100.0,100.0,13.3,1505.2,325.6,-0.8,1.8,2470.982,13.29,0.03,207.4
2022-09-22T02:10:03,42.805,6.029,-0.032,-0.01,0.024,101.0,101.0,100.0,13.4,1505.2,320.9,-0.8,1.8,2471.004,13.29,0.033,252.6
2022-09-22T02:13:03,42.805,6.029,-0.025,-0.008,0.039,101.0,102.0,99.0,13.4,1505.2,317.9,-0.8,1.8,2470.983,13.29,0.026,252.3
2022-09-22T02:16:03,42.805,6.029,-0.015,0.006,0.033,98.0,101.0,100.0,13.3,1505.2,332.5,-0.7,1.8,2471.032,13.29,0.016,291.8
2022-09-22T02:19:03,42.805,6.029,-0.035,-0.006,-0.003,103.0,101.0,100.0,13.4,1505.2,317.5,-0.8,1.8,2470.961,13.29,0.035,260.3
2022-09-22T02:22:03,42.805,6.029,0.011,-0.026,0.022,100.0,100.0,100.0,13.4,1505.2,323.0,-0.7,1.8,2470.972,13.29,0.028,157.1
2022-09-22T02:25:03,42.805,6.029,-0.029,-0.005,0.052,101.0,100.0,100.0,13.4,1505.2,333.7,-0.7,1.8,2470.985,13.29,0.029,260.2
2022-09-22T02:28:03,42.805,6.029,0.003,-0.008,0.056,101.0,101.0,100.0,13.4,1505.2,318.5,-0.8,1.8,2470.989,13.29,0.008,159.4
2022-09-22T02:31:03,42.805,6.029,-0.015,-0.019,0.008,101.0,101.0,100.0,13.3,1505.2,331.6,-0.8,1.8,2471.014,13.29,0.024,218.3
2022-09-22T02:34:03,42.805,6.029,-0.016,-0.02,0.007,101.0,103.0,99.0,13.4,1505.2,328.1,-0.8,1.8,2471.014,13.29,0.025,218.7
2022-09-22T02:37:03,42.805,6.029,-0.007,-0.008,0.018,100.0,100.0,100.0,13.3,1505.2,330.2,-0.8,1.8,2470.992,13.29,0.01,221.2
2022-09-22T02:40:03,42.805,6.029,0.005,-0.022,0.034,101.0,101.0,100.0,13.3,1505.2,319.2,-0.8,1.8,2471.018,13.29,0.022,167.2
2022-09-22T02:43:03,42.805,6.029,0.001,-0.026,0.029,100.0,102.0,100.0,13.3,1505.2,330.8,-0.8,1.8,2471.027,13.29,0.026,177.8
2022-09-22T02:46:03,42.805,6.029,-0.022,-0.018,0.003,100.0,102.0,99.0,13.4,1505.2,326.4,-0.8,1.8,2470.996,13.29,0.028,230.7
2022-09-22T02:49:03,42.805,6.029,-0.019,-0.016,-0.012,100.0,103.0,99.0,13.3,1505.2,328.7,-0.8,1.9,2470.992,13.29,0.024,229.9
2022-09-22T02:52:03,42.805,6.029,-0.023,-0.008,0.047,99.0,101.0,100.0,13.4,1505.2,316.5,-0.8,1.8,2471.006,13.29,0.024,250.8
2022-09-22T02:55:03,42.805,6.029,0.005,-0.015,0.043,100.0,100.0,100.0,13.4,1505.2,332.2,-0.8,1.8,2470.985,13.29,0.015,161.6
2022-09-22T02:58:03,42.805,6.029,-0.004,-0.018,-0.003,101.0,100.0,103.0,13.4,1505.2,329.6,-0.7,1.8,2471.014,13.29,0.018,192.5
2022-09-22T03:04:03,42.805,6.029,-0.041,-0.015,0.019,100.0,101.0,100.0,13.4,1505.2,319.4,-0.8,1.8,2471.027,13.29,0.043,249.9
2022-09-22T03:07:03,42.805,6.029,0.009,-0.036,0.003,101.0,101.0,100.0,13.4,1505.2,323.0,-0.8,1.8,2471.056,13.29,0.037,166.0
2022-09-22T03:10:03,42.805,6.029,-0.016,-0.032,-0.011,100.0,100.0,101.0,13.4,1505.2,328.3,-0.8,1.8,2471.037,13.29,0.035,206.6
2022-09-22T03:13:03,42.805,6.029,-0.009,-0.022,0.032,102.0,101.0,100.0,13.4,1505.2,322.3,-0.8,1.9,2471.075,13.29,0.023,202.2
2022-09-22T03:16:03,42.805,6.029,-0.009,-0.024,0.034,101.0,102.0,100.0,13.3,1505.2,320.5,-0.8,1.8,2471.034,13.29,0.025,200.6
2022-09-22T03:19:03,42.805,6.029,-0.006,-0.024,0.007,99.0,101.0,101.0,13.3,1505.2,327.0,-0.7,1.8,2470.987,13.29,0.024,194.0
2022-09-22T03:22:03,42.805,6.029,-0.015,-0.005,0.009,100.0,102.0,100.0,13.4,1505.2,326.3,-0.8,1.8,2470.978,13.29,0.015,251.6
2022-09-22T03:25:03,42.805,6.029,-0.013,0.0,0.028,101.0,101.0,100.0,13.4,1505.2,321.8,-0.8,1.9,2471.035,13.29,0.013,270.0
2022-09-22T03:28:03,42.805,6.029,-0.027,-0.036,-0.012,100.0,101.0,99.0,13.4,1505.2,321.2,-0.8,1.8,2471.027,13.29,0.045,216.9
2022-09-22T03:31:03,42.805,6.029,-0.009,-0.029,0.002,101.0,101.0,100.0,13.4,1505.2,317.7,-0.8,1.8,2471.022,13.29,0.03,197.2
2022-09-22T03:34:03,42.805,6.029,0.025,-0.039,0.003,100.0,100.0,99.0,13.4,1505.2,321.7,-0.7,1.8,2471.035,13.29,0.046,147.3
2022-09-22T03:37:03,42.805,6.029,-0.017,-0.024,0.027,100.0,102.0,99.0,13.4,1505.2,322.6,-0.8,1.8,2471.014,13.29,0.029,215.3
2022-09-22T03:40:03,42.805,6.029,-0.018,-0.012,0.026,101.0,102.0,100.0,13.4,1505.2,329.6,-0.8,1.8,2471.058,13.29,0.021,236.3
2022-09-22T03:43:03,42.805,6.029,-0.007,-0.044,-0.035,101.0,101.0,100.0,13.4,1505.2,326.6,-0.8,1.8,2471.041,13.29,0.044,189.0
2022-09-22T03:46:03,42.805,6.029,-0.025,-0.017,0.033,101.0,104.0,99.0,13.4,1505.2,326.3,-0.8,1.8,2471.057,13.29,0.03,235.8
2022-09-22T03:49:03,42.805,6.029,-0.01,-0.01,0.041,100.0,100.0,101.0,13.4,1505.2,319.4,-0.8,1.8,2471.027,13.29,0.014,225.0
2022-09-22T03:52:03,42.805,6.029,-0.018,-0.008,0.042,101.0,101.0,100.0,13.4,1505.2,324.8,-0.8,1.8,2471.004,13.29,0.019,246.0
2022-09-22T03:55:03,42.805,6.029,-0.007,-0.027,0.009,101.0,101.0,100.0,13.4,1505.2,332.0,-0.8,1.8,2470.98,13.29,0.027,194.5
2022-09-22T03:58:03,42.805,6.029,-0.032,-0.016,0.029,100.0,101.0,99.0,13.4,1505.2,323.7,-0.8,1.9,2471.028,13.29,0.035,243.4
2022-09-22T04:04:03,42.805,6.029,-0.02,-0.026,0.018,100.0,101.0,99.0,13.4,1505.2,327.0,-0.8,1.8,2471.047,13.29,0.032,217.6
2022-09-22T04:07:03,42.805,6.029,-0.006,-0.031,-0.026,100.0,101.0,100.0,13.4,1505.2,321.9,-0.7,1.8,2471.032,13.29,0.031,191.0
2022-09-22T04:10:03,42.805,6.029,0.0,-0.025,0.017,102.0,101.0,99.0,13.4,1505.2,323.4,-0.7,1.8,2471.065,13.29,0.025,180.0
2022-09-22T04:13:03,42.805,6.029,-0.018,-0.022,0.013,101.0,100.0,99.0,13.4,1505.2,328.7,-0.8,1.8,2471.052,13.29,0.028,219.3
2022-09-22T04:16:03,42.805,6.029,0.009,-0.034,0.008,100.0,102.0,100.0,13.4,1505.2,332.5,-0.8,1.8,2471.032,13.29,0.035,165.2
2022-09-22T04:19:03,42.805,6.029,-0.011,-0.01,0.044,100.0,101.0,100.0,13.4,1505.2,325.5,-0.7,1.8,2471.037,13.29,0.014,227.7
2022-09-22T04:22:03,42.805,6.029,-0.02,-0.016,-0.01,100.0,100.0,100.0,13.3,1505.2,324.4,-0.8,1.8,2471.019,13.29,0.025,231.3
2022-09-22T04:25:03,42.805,6.029,0.007,-0.021,-0.003,101.0,100.0,102.0,13.4,1505.2,320.0,-0.8,1.8,2471.026,13.29,0.022,161.6
2022-09-22T04:28:03,42.805,6.029,-0.029,-0.01,0.04,101.0,101.0,100.0,13.3,1505.2,330.8,-0.8,1.8,2471.039,13.29,0.03,251.0
2022-09-22T04:31:03,42.805,6.029,-0.036,-0.027,-0.017,101.0,102.0,99.0,13.4,1505.2,325.0,-0.7,1.8,2471.044,13.29,0.045,233.1
2022-09-22T04:34:03,42.805,6.029,-0.02,-0.011,0.06,100.0,100.0,99.0,13.4,1505.2,328.6,-0.8,1.8,2471.045,13.29,0.022,241.2
2022-09-22T04:37:03,42.805,6.029,0.002,-0.032,-0.038,103.0,100.0,99.0,13.3,1505.2,318.6,-0.7,1.8,2470.986,13.29,0.032,176.4
2022-09-22T04:40:03,42.805,6.029,-0.022,-0.014,0.034,100.0,100.0,100.0,13.4,1505.2,323.7,-0.8,1.8,2471.027,13.29,0.026,237.5
2022-09-22T04:43:03,42.805,6.029,-0.006,-0.041,-0.007,102.0,100.0,100.0,13.4,1505.2,325.5,-0.8,1.8,2471.016,13.29,0.041,188.3
2022-09-22T04:46:03,42.805,6.029,0.011,-0.016,0.047,102.0,101.0,100.0,13.3,1505.2,331.9,-0.8,1.8,2471.028,13.29,0.019,145.5
2022-09-22T04:49:03,42.805,6.029,-0.02,-0.012,0.001,100.0,100.0,100.0,13.4,1505.2,323.5,-0.7,1.8,2471.069,13.29,0.023,239.0
2022-09-22T04:52:03,42.805,6.029,-0.025,-0.022,0.017,101.0,101.0,100.0,13.4,1505.2,331.4,-0.8,1.8,2470.999,13.29,0.033,228.7
2022-09-22T04:55:03,42.805,6.029,-0.005,-0.035,0.002,100.0,101.0,99.0,13.4,1505.2,333.1,-0.8,1.8,2471.02,13.29,0.035,188.1
2022-09-22T04:58:03,42.805,6.029,-0.004,0.005,0.058,101.0,99.0,101.0,13.4,1505.2,331.9,-0.8,1.8,2471.039,13.29,0.006,321.3
2022-09-22T05:04:03,42.805,6.029,-0.006,-0.015,0.027,101.0,100.0,99.0,13.4,1505.2,328.1,-0.8,1.8,2471.103,13.29,0.016,201.8
2022-09-22T05:07:03,42.805,6.029,-0.007,-0.017,0.026,100.0,100.0,100.0,13.4,1505.2,333.1,-0.8,1.8,2471.066,13.29,0.018,202.4
2022-09-22T05:10:03,42.805,6.029,-0.008,-0.003,0.006,100.0,101.0,100.0,13.3,1505.2,326.6,-0.7,1.8,2471.08,13.29,0.008,249.4
2022-09-22T05:13:03,42.805,6.029,-0.019,-0.029,0.015,101.0,99.0,99.0,13.3,1505.2,334.0,-0.8,1.8,2471.037,13.29,0.034,213.2
2022-09-22T05:16:03,42.805,6.029,-0.016,-0.008,0.011,101.0,101.0,100.0,13.3,1505.2,327.3,-0.7,1.8,2471.072,13.29,0.017,243.4
2022-09-22T05:19:03,42.805,6.029,-0.014,-0.023,0.006,101.0,102.0,99.0,13.3,1505.2,333.1,-0.8,1.8,2471.058,13.29,0.026,211.3
2022-09-22T05:22:03,42.805,6.029,-0.01,-0.023,0.019,100.0,101.0,99.0,13.4,1505.2,321.7,-0.8,1.8,2471.066,13.29,0.025,203.5
2022-09-22T05:25:03,42.805,6.029,-0.016,-0.021,0.03,100.0,98.0,101.0,13.3,1505.2,326.9,-0.8,1.8,2471.023,13.29,0.026,217.3
2022-09-22T05:28:03,42.805,6.029,-0.062,-0.002,-0.014,99.0,102.0,100.0,13.3,1505.2,332.5,-0.8,1.8,2471.046,13.29,0.062,268.2
2022-09-22T05:31:03,42.805,6.029,-0.004,-0.016,0.041,99.0,102.0,101.0,13.3,1505.2,331.9,-0.8,1.8,2471.0,13.29,0.016,194.0
2022-09-22T05:34:03,42.805,6.029,-0.003,-0.021,0.001,99.0,107.0,102.0,13.3,1505.2,322.1,-0.8,1.8,2471.041,13.29,0.021,188.1
2022-09-22T05:37:03,42.805,6.029,-0.022,-0.019,0.011,103.0,100.0,99.0,13.3,1505.2,324.6,-0.7,1.9,2471.053,13.29,0.029,229.2
2022-09-22T05:40:03,42.805,6.029,0.006,-0.027,-0.002,103.0,98.0,100.0,13.3,1505.2,326.6,-0.7,1.8,2471.017,13.29,0.027,167.5
2022-09-22T05:43:03,42.805,6.029,-0.032,-0.017,0.001,98.0,100.0,101.0,13.4,1505.2,329.7,-0.8,1.8,2471.035,13.29,0.036,242.0
2022-09-22T05:46:03,42.805,6.029,0.011,-0.038,0.017,103.0,104.0,100.0,13.4,1505.2,324.3,-0.8,1.8,2471.03,13.29,0.039,163.9
2022-09-22T05:49:03,42.805,6.029,-0.007,-0.054,-0.013,106.0,100.0,100.0,13.4,1505.2,325.6,-0.8,1.8,2471.019,13.29,0.054,187.4
2022-09-22T05:52:03,42.805,6.029,0.003,-0.024,0.011,99.0,104.0,100.0,13.4,1505.2,317.0,-0.8,1.8,2471.061,13.29,0.024,172.9
2022-09-22T05:55:03,42.805,6.029,-0.024,-0.015,0.022,99.0,101.0,100.0,13.4,1505.2,323.0,-0.8,1.8,2471.042,13.29,0.028,238.0
2022-09-22T05:58:03,42.805,6.029,-0.008,-0.022,0.017,102.0,103.0,99.0,13.4,1505.2,330.4,-0.8,1.8,2471.061,13.29,0.023,200.0
2022-09-22T06:04:03,42.805,6.029,-0.014,-0.024,0.026,103.0,101.0,99.0,13.4,1505.2,334.5,-0.8,1.8,2471.071,13.29,0.027,210.3
2022-09-22T06:07:03,42.805,6.029,-0.022,-0.045,-0.044,99.0,100.0,101.0,13.4,1505.2,332.8,-0.8,1.8,2471.061,13.29,0.05,206.1
2022-09-22T06:10:03,42.805,6.029,0.005,-0.031,0.02,101.0,100.0,99.0,13.3,1505.2,323.8,-0.8,1.8,2471.054,13.29,0.031,170.8
2022-09-22T06:13:03,42.805,6.029,0.0,-0.021,0.013,102.0,102.0,99.0,13.4,1505.2,323.9,-0.8,1.8,2471.057,13.29,0.021,180.0
2022-09-22T06:16:03,42.805,6.029,-0.018,-0.029,-0.003,104.0,102.0,101.0,13.4,1505.2,331.8,-0.8,1.8,2471.07,13.29,0.034,211.8
2022-09-22T06:19:03,42.805,6.029,-0.015,-0.033,0.012,102.0,101.0,99.0,13.4,1505.2,319.0,-0.8,1.8,2471.06,13.29,0.036,204.4
2022-09-22T06:22:03,42.805,6.029,0.011,-0.032,0.019,101.0,102.0,101.0,13.3,1505.2,327.9,-0.8,1.8,2471.032,13.29,0.033,161.0
2022-09-22T06:25:03,42.805,6.029,0.001,-0.037,0.034,102.0,100.0,99.0,13.3,1505.2,328.9,-0.8,1.8,2471.024,13.29,0.037,178.5
2022-09-22T06:28:03,42.805,6.029,-0.031,-0.023,-0.022,100.0,101.0,100.0,13.4,1505.2,332.8,-0.8,1.8,2471.014,13.29,0.038,233.4
2022-09-22T06:31:03,42.805,6.029,-0.017,-0.021,0.022,101.0,101.0,100.0,13.4,1505.2,333.7,-0.8,1.8,2471.029,13.29,0.027,219.0
2022-09-22T06:34:03,42.805,6.029,-0.027,-0.045,-0.029,100.0,101.0,99.0,13.4,1505.2,323.5,-0.7,1.8,2471.057,13.29,0.052,211.0
2022-09-22T06:37:03,42.805,6.029,-0.017,-0.029,0.038,101.0,101.0,100.0,13.3,1505.2,324.4,-0.8,1.8,2471.019,13.29,0.033,210.4
2022-09-22T06:40:03,42.805,6.029,-0.022,-0.015,0.0,100.0,101.0,99.0,13.4,1505.2,316.6,-0.8,1.8,2471.01,13.29,0.026,235.7
2022-09-22T06:43:03,42.805,6.029,-0.002,-0.025,0.011,101.0,102.0,100.0,13.4,1505.2,316.6,-0.8,1.8,2471.059,13.29,0.025,184.6
2022-09-22T06:46:03,42.805,6.029,0.003,-0.019,0.036,100.0,101.0,100.0,13.3,1505.2,331.2,-0.8,1.9,2471.016,13.29,0.019,171.0
2022-09-22T06:49:03,42.805,6.029,-0.024,-0.024,0.011,101.0,100.0,99.0,13.4,1505.2,330.9,-0.8,1.8,2471.064,13.29,0.033,225.0
2022-09-22T06:52:03,42.805,6.029,-0.024,-0.017,0.011,105.0,99.0,100.0,13.4,1505.2,328.0,-0.8,1.8,2471.029,13.29,0.029,234.7
2022-09-22T06:55:03,42.805,6.029,-0.024,-0.03,0.019,102.0,100.0,100.0,13.3,1505.2,322.2,-0.8,1.8,2470.995,13.29,0.038,218.7
2022-09-22T06:58:03,42.805,6.029,-0.022,-0.031,0.011,100.0,101.0,100.0,13.4,1505.2,322.1,-0.8,1.8,2471.047,13.29,0.038,215.4
2022-09-22T07:04:03,42.805,6.029,-0.016,-0.027,0.03,100.0,102.0,99.0,13.4,1505.2,333.4,-0.8,1.8,2471.071,13.29,0.031,210.7
2022-09-22T07:07:03,42.805,6.029,-0.024,-0.027,0.01,100.0,100.0,100.0,13.4,1505.2,329.9,-0.8,1.8,2471.041,13.29,0.036,221.6
2022-09-22T07:10:03,42.805,6.029,-0.01,-0.034,-0.01,100.0,100.0,100.0,13.3,1505.2,334.2,-0.8,1.8,2471.006,13.29,0.035,196.4
2022-09-22T07:13:03,42.805,6.029,-0.015,-0.03,0.023,99.0,100.0,103.0,13.3,1505.2,327.2,-0.7,1.8,2471.039,13.29,0.033,206.6
2022-09-22T07:16:03,42.805,6.029,-0.018,-0.03,-0.007,104.0,99.0,99.0,13.4,1505.2,323.7,-0.7,1.8,2471.015,13.29,0.034,211.0
2022-09-22T07:19:03,42.805,6.029,-0.023,-0.04,0.005,103.0,102.0,99.0,13.4,1505.2,334.3,-0.8,1.8,2471.0,13.29,0.046,209.9
2022-09-22T07:22:03,42.805,6.029,-0.043,-0.016,0.029,102.0,102.0,100.0,13.4,1505.2,333.7,-0.7,1.8,2471.049,13.29,0.045,249.6
2022-09-22T07:25:03,42.805,6.029,-0.002,-0.023,0.025,100.0,104.0,101.0,13.4,1505.2,329.3,-0.7,1.8,2471.007,13.29,0.023,185.0
2022-09-22T07:28:03,42.805,6.029,-0.019,-0.032,-0.001,100.0,100.0,100.0,13.4,1505.2,325.1,-0.8,1.8,2471.03,13.29,0.037,210.7
2022-09-22T07:31:03,42.805,6.029,-0.008,-0.021,0.014,100.0,100.0,100.0,13.4,1505.2,318.5,-0.8,1.8,2471.026,13.29,0.022,200.9
2022-09-22T07:34:03,42.805,6.029,-0.015,-0.02,0.0,101.0,103.0,100.0,13.4,1505.2,323.3,-0.8,1.8,2471.01,13.29,0.025,216.9
2022-09-22T07:37:03,42.805,6.029,-0.039,-0.004,-0.021,100.0,99.0,102.0,13.4,1505.2,329.2,-0.8,1.8,2471.006,13.29,0.039,264.1
2022-09-22T07:40:03,42.805,6.029,-0.039,-0.028,0.02,100.0,101.0,100.0,13.3,1505.2,327.7,-0.7,1.8,2470.999,13.29,0.048,234.3
2022-09-22T07:43:03,42.805,6.029,-0.01,-0.025,0.008,100.0,102.0,100.0,13.3,1505.2,328.0,-0.7,1.8,2471.01,13.29,0.026,201.8
2022-09-22T07:46:03,42.805,6.029,-0.029,-0.022,0.0,98.0,104.0,99.0,13.4,1505.2,327.7,-0.8,1.8,2471.025,13.29,0.036,232.8
2022-09-22T07:49:03,42.805,6.029,-0.025,-0.034,-0.03,100.0,101.0,101.0,13.4,1505.2,329.6,-0.8,1.8,2471.006,13.29,0.042,216.3
2022-09-22T07:52:03,42.805,6.029,-0.022,-0.026,0.013,101.0,103.0,101.0,13.4,1505.2,332.2,-0.7,1.8,2470.968,13.29,0.034,220.2
2022-09-22T07:55:03,42.805,6.029,-0.009,-0.003,0.045,100.0,101.0,99.0,13.4,1505.2,332.2,-0.8,1.8,2470.976,13.29,0.009,251.6
2022-09-22T07:58:03,42.805,6.029,-0.015,-0.036,0.017,100.0,100.0,102.0,13.3,1505.2,330.6,-0.8,1.8,2470.952,13.29,0.039,202.6
2022-09-22T08:04:03,42.805,6.029,-0.016,-0.042,0.0,100.0,101.0,99.0,13.4,1505.2,325.0,-0.8,1.8,2471.02,13.29,0.044,200.9
2022-09-22T08:07:03,42.805,6.029,-0.021,-0.029,0.001,101.0,101.0,100.0,13.4,1505.2,321.6,-0.7,1.8,2471.042,13.29,0.035,215.9
2022-09-22T08:10:03,42.805,6.029,-0.011,-0.026,0.046,101.0,99.0,99.0,13.4,1505.2,322.4,-0.7,1.8,2471.026,13.29,0.028,202.9
2022-09-22T08:13:03,42.805,6.029,-0.007,-0.033,0.027,102.0,101.0,100.0,13.4,1505.2,323.0,-0.7,1.8,2471.045,13.29,0.033,192.0
2022-09-22T08:16:03,42.805,6.029,-0.034,-0.021,0.011,101.0,100.0,100.0,13.3,1505.2,325.0,-0.8,1.8,2471.018,13.29,0.039,238.3
2022-09-22T08:19:03,42.805,6.029,0.002,-0.016,0.033,101.0,101.0,100.0,13.4,1505.2,327.7,-0.7,1.8,2470.992,13.29,0.016,172.9
2022-09-22T08:22:03,42.805,6.029,0.017,-0.034,-0.006,101.0,101.0,99.0,13.3,1505.2,316.2,-0.8,1.8,2470.986,13.29,0.038,153.4
2022-09-22T08:25:03,42.805,6.029,-0.039,-0.049,-0.008,100.0,101.0,100.0,13.4,1505.2,320.6,-0.8,1.8,2470.981,13.29,0.062,218.5
2022-09-22T08:28:03,42.805,6.029,-0.001,-0.035,0.008,101.0,101.0,100.0,13.4,1505.2,331.2,-0.7,1.8,2470.992,13.29,0.035,181.6
2022-09-22T08:31:03,42.805,6.029,-0.019,-0.029,-0.004,101.0,101.0,99.0,13.4,1505.2,329.2,-0.8,1.8,2471.011,13.29,0.034,213.2
2022-09-22T08:34:03,42.805,6.029,0.008,-0.013,0.013,100.0,101.0,101.0,13.4,1505.2,318.9,-0.8,1.9,2471.039,13.29,0.015,148.4
2022-09-22T08:37:03,42.805,6.029,0.015,-0.028,0.013,103.0,102.0,100.0,13.3,1505.2,332.0,-0.7,1.8,2470.969,13.29,0.031,151.8
2022-09-22T08:40:03,42.805,6.029,-0.024,-0.027,0.024,101.0,101.0,101.0,13.3,1505.2,329.3,-0.8,1.8,2471.015,13.29,0.036,221.6
2022-09-22T08:43:03,42.805,6.029,-0.009,-0.028,0.014,101.0,101.0,99.0,13.3,1505.2,323.1,-0.7,1.8,2470.988,13.29,0.029,197.8
2022-09-22T08:46:03,42.805,6.029,-0.034,-0.028,0.014,100.0,100.0,99.0,13.4,1505.2,329.6,-0.8,1.8,2471.0,13.29,0.044,230.5
2022-09-22T08:49:03,42.805,6.029,0.004,-0.024,0.017,100.0,100.0,100.0,13.4,1505.2,322.8,-0.8,1.8,2470.994,13.29,0.024,170.5
2022-09-22T08:52:03,42.805,6.029,-0.018,-0.038,0.013,100.0,100.0,100.0,13.4,1505.2,327.9,-0.8,1.8,2470.988,13.29,0.042,205.3
2022-09-22T08:55:03,42.805,6.029,-0.02,-0.012,0.029,100.0,100.0,100.0,13.4,1505.2,319.5,-0.8,1.8,2470.974,13.29,0.023,239.0
2022-09-22T08:58:03,42.805,6.029,-0.041,-0.018,-0.005,100.0,101.0,100.0,13.3,1505.2,333.7,-0.8,1.8,2471.013,13.29,0.044,246.3
2022-09-22T09:04:03,42.805,6.029,0.005,-0.04,0.024,100.0,99.0,101.0,13.4,1505.2,319.4,-0.8,1.8,2471.037,13.29,0.04,172.9
2022-09-22T09:07:03,42.805,6.029,-0.008,-0.01,0.014,101.0,101.0,99.0,13.3,1505.2,318.6,-0.8,1.8,2471.034,13.29,0.012,218.7
2022-09-22T09:10:03,42.805,6.029,-0.004,-0.036,0.001,101.0,100.0,100.0,13.3,1505.2,321.4,-0.8,1.8,2470.99,13.29,0.036,186.3
2022-09-22T09:13:03,42.805,6.029,-0.024,-0.022,0.01,104.0,100.0,100.0,13.4,1505.2,332.2,-0.7,1.8,2470.985,13.29,0.032,227.5
2022-09-22T09:16:03,42.805,6.029,-0.008,-0.022,0.009,100.0,102.0,99.0,13.4,1505.2,324.4,-0.7,1.8,2470.977,13.29,0.023,200.0
2022-09-22T09:19:03,42.805,6.029,-0.01,-0.036,-0.011,100.0,100.0,101.0,13.4,1505.2,326.4,-0.7,1.8,2470.993,13.29,0.037,195.5
2022-09-22T09:22:03,42.805,6.029,-0.008,-0.024,0.017,99.0,102.0,101.0,13.3,1505.2,327.4,-0.8,1.8,2470.967,13.29,0.025,198.4
2022-09-22T09:25:03,42.805,6.029,0.0,-0.022,0.03,98.0,105.0,101.0,13.4,1505.2,334.3,-0.8,1.9,2471.035,13.29,0.022,180.0
2022-09-22T09:28:03,42.805,6.029,-0.017,-0.023,0.008,101.0,101.0,100.0,13.4,1505.2,332.5,-0.8,1.8,2470.997,13.29,0.028,216.5
2022-09-22T09:31:03,42.805,6.029,0.0,-0.053,-0.016,100.0,102.0,100.0,13.3,1505.2,322.6,-0.8,1.8,2471.004,13.29,0.053,180.0
2022-09-22T09:34:03,42.805,6.029,-0.009,-0.018,0.029,101.0,101.0,100.0,13.4,1505.2,321.4,-0.8,1.8,2470.989,13.29,0.02,206.6
2022-09-22T09:37:03,42.805,6.029,-0.038,-0.016,0.003,101.0,102.0,101.0,13.4,1505.2,327.7,-0.7,1.8,2470.98,13.29,0.041,247.2
2022-09-22T09:40:03,42.805,6.029,-0.035,-0.027,0.01,104.0,100.0,99.0,13.4,1505.2,328.4,-0.7,1.8,2470.942,13.29,0.044,232.3
2022-09-22T09:43:03,42.805,6.029,-0.019,-0.012,0.068,103.0,100.0,100.0,13.4,1505.2,320.9,-0.7,1.8,2470.949,13.29,0.022,237.7
2022-09-22T09:46:03,42.805,6.029,-0.028,-0.021,-0.006,100.0,102.0,100.0,13.4,1505.2,322.3,-0.8,1.8,2470.955,13.29,0.035,233.1
2022-09-22T09:49:03,42.805,6.029,-0.035,-0.021,0.014,101.0,100.0,100.0,13.4,1505.2,318.5,-0.7,1.8,2470.95,13.29,0.04,239.0
2022-09-22T09:52:03,42.805,6.029,-0.04,-0.018,0.011,101.0,102.0,99.0,13.4,1505.2,321.8,-0.8,1.8,2470.962,13.29,0.043,245.8
2022-09-22T09:55:03,42.805,6.029,-0.009,-0.029,0.038,101.0,100.0,99.0,13.4,1505.2,328.5,-0.7,1.9,2470.927,13.29,0.03,197.2